This is the latest recevied weather packets stored in our database for station/object YO6IKB-10. If no packets are shown the sender has not sent any weather packets the latest 10 day(s).
| Time | Temp. | Humidity | Pressure | Rain* | Wind** | Luminosity | Snow |
|---|---|---|---|---|---|---|---|
| 1777975063 | 25° C | 39% | 1012.3 hPa | 0 mm | - | - | - |
| 1777974762 | 26.11° C | 39% | 1012.3 hPa | 0 mm | - | - | - |
| 1777974462 | 26.11° C | 41% | 1012.5 hPa | 0 mm | - | - | - |
| 1777974162 | 25.56° C | 41% | 1012.4 hPa | 0 mm | - | - | - |
| 1777973862 | 25.56° C | 41% | 1012.5 hPa | 0 mm | - | - | - |
| 1777973561 | 25.56° C | 40% | 1012.6 hPa | 0 mm | - | - | - |
| 1777973261 | 25.56° C | 42% | 1012.6 hPa | 0 mm | - | - | - |
| 1777972961 | 25.56° C | 42% | 1012.7 hPa | 0 mm | - | - | - |
| 1777972660 | 25.56° C | 42% | 1012.7 hPa | 0 mm | - | - | - |
| 1777972360 | 25° C | 43% | 1012.8 hPa | 0 mm | - | - | - |
| 1777972060 | 24.44° C | 43% | 1012.9 hPa | 0 mm | - | - | - |
| 1777971760 | 24.44° C | 44% | 1012.9 hPa | 0 mm | - | - | - |
| 1777971459 | 23.89° C | 42% | 1012.9 hPa | 0 mm | - | - | - |
| 1777971159 | 24.44° C | 42% | 1012.9 hPa | 0 mm | - | - | - |
| 1777970859 | 23.89° C | 44% | 1013 hPa | 0 mm | - | - | - |
| 1777970558 | 24.44° C | 42% | 1013 hPa | 0 mm | - | - | - |
| 1777970258 | 24.44° C | 43% | 1013.1 hPa | 0 mm | - | - | - |
| 1777969958 | 24.44° C | 44% | 1013.1 hPa | 0 mm | - | - | - |
| 1777969657 | 23.89° C | 43% | 1013.1 hPa | 0 mm | - | - | - |
| 1777969357 | 24.44° C | 43% | 1013.2 hPa | 0 mm | - | - | - |
| 1777969057 | 23.89° C | 43% | 1013.3 hPa | 0 mm | - | - | - |
| 1777968757 | 23.33° C | 44% | 1013.3 hPa | 0 mm | - | - | - |
| 1777968456 | 23.33° C | 44% | 1013.2 hPa | 0 mm | - | - | - |
| 1777968156 | 22.78° C | 46% | 1013.3 hPa | 0 mm | - | - | - |
| 1777967856 | 21.67° C | 46% | 1013.4 hPa | 0 mm | - | - | - |
* Rain latest hour (hover to see other rain measurements)
** Current wind speed in m/s (hover to see current wind gust speed)